Location: City of Moscow
(46.7306°N, 116.9989°W)
Time: 07:55:38
(UTC+00:00)

USA 234 - Pass Details

Date: 14 March 2026
Orbit: 1102 x 1106 km, 123.0° (Epoch: 4 January)

Event Time Altitude Azimuth Distance (km) Brightness Sun altitude
Exits shadow 04:30:53 49° 65° (ENE) 1,401 3.5 -27.2°
Maximum altitude 04:32:11 57° 25° (NNE) 1,287 3.5 -27.4°
Drops below altitude 10° 04:38:34 10° 309° (NW) 2,970 6.5 -28.4°
Sets 04:41:06 0° 306° (NW) 3,931 7.4 -28.8°
